sat.trackr.live / text

‹ back to catalog

SXM-9

NORAD 62259 · 2024-234A

PAYLOAD ACTIVE UNKNOWN

§ Identity

Operator
Country
US
Launch date
2024-12-05
Launch site
AFETR
Launch vehicle
Mass (kg)
RCS (m²)

Purposes: comms

External: N2YO · Heavens-Above · Gunter

§ Orbital elements

Epoch: 2026-09-19T13:08:43.916928Z

Period
1,436.10 min
Inclination
0.0112°
Eccentricity
0.0004299
Mean motion
1.00271518 rev/d
Perigee alt
35,768.5 km
Apogee alt
35,804.8 km
Semi-major
42,164.8 km
B*
0.0000e+0
RAAN
239.2200°
Arg perigee
79.6732°
Mean anomaly
151.5962°
Rev number
652

§ Raw data

SXM-91 62259U 24234A   26262.54773052 -.00000209  00000+0  00000+0 0  99902 62259   0.0112 239.2200 0004299  79.6732 151.5962  1.00271518  6523

JSON: /api/v1/satellites/62259 · /tle

For live sub-satellite position, see the globe view (requires WebGL).

§ Visibility from observer

Set your observer location to see the next 7 days of passes ≥ 10°. The values pass through the URL so the page stays shareable.

No JS? Fill the form by hand. The geolocation button needs JavaScript.